Location: Breungeshain
(50.5000°N, 9.2000°E)
Time: 09:49:09
(UTC+00:00)

ISS - Pass Details

Date: 27 May 2017
Orbit: 402 x 409 km, 51.6° (Epoch: 24 May)

Event Time Altitude Azimuth Distance (km) Brightness Sun altitude
Rises 23:40:37 0° 285° (WNW) 2,334 0.2 -17.9°
Reaches altitude 10° 23:42:43 10° 284° (WNW) 1,470 -0.9 -17.9°
Maximum altitude 23:46:00 76° 199° (SSW) 423 -4.0 -17.8°
Enters shadow 23:47:17 34° 119° (ESE) 693 -2.9 -17.8°
